TimeEET,TemperatureF,Dew PointF,Humidity,Sea Level PressureIn,VisibilityMPH,Wind Direction,Wind SpeedMPH,Gust SpeedMPH,PrecipitationIn,Events,Conditions,WindDirDegrees,DateUTC
1:50 AM,48.2,39.2,71,30.06,6.2,NNW,10.4,-,N/A,,Partly Cloudy,330,2012-12-30 23:50:00
4:50 AM,46.4,39.2,76,30.06,-9999.0,NNW,8.1,-,N/A,,Clear,330,2012-12-31 02:50:00
5:50 AM,42.8,39.2,87,30.06,-9999.0,Calm,Calm,-,N/A,,Clear,0,2012-12-31 03:50:00
6:20 AM,44.6,39.2,81,30.06,-9999.0,Calm,Calm,-,N/A,,Clear,0,2012-12-31 04:20:00
6:50 AM,44.6,39.2,81,30.06,-9999.0,Calm,Calm,-,N/A,,Clear,0,2012-12-31 04:50:00
7:20 AM,42.8,39.2,87,30.06,-9999.0,Calm,Calm,-,N/A,,Clear,0,2012-12-31 05:20:00
7:50 AM,44.6,39.2,81,30.06,6.2,NNW,4.6,-,N/A,,Partly Cloudy,330,2012-12-31 05:50:00
8:20 AM,42.8,39.2,87,30.09,6.2,North,4.6,-,N/A,,Partly Cloudy,360,2012-12-31 06:20:00
8:50 AM,46.4,39.2,76,30.09,6.2,NW,4.6,-,N/A,,Partly Cloudy,320,2012-12-31 06:50:00
9:20 AM,46.4,41.0,81,30.09,6.2,Calm,Calm,-,N/A,,Scattered Clouds,0,2012-12-31 07:20:00
9:50 AM,53.6,42.8,67,30.09,6.2,NW,4.6,-,N/A,,Scattered Clouds,310,2012-12-31 07:50:00
10:20 AM,59.0,44.6,59,30.12,6.2,NNW,4.6,-,N/A,,Scattered Clouds,340,2012-12-31 08:20:00
10:50 AM,60.8,42.8,52,30.12,6.2,NNW,5.8,-,N/A,,Scattered Clouds,330,2012-12-31 08:50:00
11:20 AM,60.8,41.0,48,30.09,6.2,North,4.6,-,N/A,,Scattered Clouds,350,2012-12-31 09:20:00
11:50 AM,62.6,41.0,45,30.09,6.2,North,4.6,-,N/A,,Scattered Clouds,350,2012-12-31 09:50:00
12:20 PM,62.6,41.0,45,30.09,6.2,West,4.6,-,N/A,,Scattered Clouds,280,2012-12-31 10:20:00
12:50 PM,64.4,42.8,45,30.06,6.2,West,4.6,-,N/A,,Scattered Clouds,280,2012-12-31 10:50:00
1:20 PM,64.4,39.2,40,30.06,6.2,Calm,Calm,-,N/A,,Scattered Clouds,0,2012-12-31 11:20:00
1:50 PM,62.6,41.0,45,30.06,6.2,Calm,Calm,-,N/A,,Scattered Clouds,0,2012-12-31 11:50:00
2:20 PM,64.4,39.2,40,30.06,6.2,NNE,4.6,-,N/A,,Scattered Clouds,30,2012-12-31 12:20:00
2:50 PM,64.4,41.0,42,30.06,6.2,Calm,Calm,-,N/A,,Scattered Clouds,0,2012-12-31 12:50:00
3:20 PM,64.4,42.8,45,30.06,6.2,South,6.9,-,N/A,,Scattered Clouds,190,2012-12-31 13:20:00
3:50 PM,60.8,44.6,55,30.06,6.2,South,5.8,-,N/A,,Mostly Cloudy,190,2012-12-31 13:50:00
4:20 PM,59.0,42.8,55,30.06,6.2,Calm,Calm,-,N/A,,Mostly Cloudy,0,2012-12-31 14:20:00
4:50 PM,57.2,42.8,59,30.06,6.2,Calm,Calm,-,N/A,,Mostly Cloudy,0,2012-12-31 14:50:00
5:20 PM,57.2,42.8,59,30.06,6.2,Calm,Calm,-,N/A,,Mostly Cloudy,0,2012-12-31 15:20:00
5:50 PM,55.4,44.6,67,30.06,6.2,Calm,Calm,-,N/A,,Mostly Cloudy,0,2012-12-31 15:50:00
6:20 PM,53.6,42.8,67,30.06,6.2,Calm,Calm,-,N/A,,Mostly Cloudy,0,2012-12-31 16:20:00
6:50 PM,51.8,42.8,71,30.06,6.2,Calm,Calm,-,N/A,,Mostly Cloudy,0,2012-12-31 16:50:00
7:20 PM,51.8,42.8,71,30.09,6.2,Calm,Calm,-,N/A,,Mostly Cloudy,0,2012-12-31 17:20:00
7:50 PM,50.0,42.8,76,30.09,6.2,NNW,4.6,-,N/A,,Mostly Cloudy,330,2012-12-31 17:50:00
10:50 PM,48.2,42.8,82,30.09,6.2,NNW,5.8,-,N/A,,Mostly Cloudy,330,2012-12-31 20:50:00